Location: 433rd Scouts Home(Lloyd Manor Park, Etobicoke )
(43.6722°N, 79.5542°W)
Time: 22:03:13
(UTC-04:00)

Envisat - Pass Details

Date: 26 September 2021
Orbit: 764 x 766 km, 98.2° (Epoch: 17 October)

Event Time Altitude Azimuth Distance (km) Brightness Sun altitude
Rises 06:00:40 0° 19° (NNE) 3,240 6.7 -13.4°
Reaches altitude 10° 06:03:05 10° 26° (NNE) 2,309 6.0 -12.9°
Maximum altitude 06:07:57 45° 98° (E) 1,042 4.2 -12.1°
Drops below altitude 10° 06:12:47 10° 171° (S) 2,292 5.5 -11.2°
Sets 06:15:10 0° 178° (S) 3,214 6.2 -10.8°
